Location: Unspecified
(48.7670°N, 0.0000°E)
Time: 19:47:09
(UTC+00:00)

Courier 1B - Pass Details

Date: 20 June 2019
Orbit: 963 x 1209 km, 28.3° (Epoch: 20 July)

Event Time Altitude Azimuth Distance (km) Brightness Sun altitude
Rises 20:15:12 0° 227° (SW) 3,949 10.8 -1.9°
Reaches altitude 10° 20:19:26 10° 205° (SSW) 3,040 9.9 -2.5°
Maximum altitude 20:23:14 15° 174° (S) 2,738 9.4 -2.9°
Drops below altitude 10° 20:27:07 10° 143° (SE) 3,109 9.5 -3.4°
Enters shadow 20:29:47 - 129° (SE) 3,662 9.8 -3.7°
Sets 20:31:31 0° 122° (ESE) 4,097 - -3.9°
